Simultaneous Nadir Overpasses (SNOs) Predictions

Prediction of SNOs between GOES-15 and NOAA-20 Satellite Orbit:

Table of predicted SNOs for the next 14.0 days since TLE Epoch: 1/24/2025
Index Date Time (GOES-15) GOES-15 Lat,Lon NOAA-20 Lat,Lon Distance(km) Time Diff (sec)
1 01/25/2025 21:31:43 0.01, 61.51 0.69, 58.36 357.82 80
2 01/26/2025 21:10:19 0.01, 61.53 -0.32, 62.90 156.35 80
3 01/28/2025 09:32:14 -0.01, 61.67 -0.93, 57.61 463.24 80
4 01/29/2025 09:16:10 -0.00, 61.69 0.08, 62.14 51.08 80
5 01/31/2025 21:19:14 0.00, 61.63 0.08, 61.40 27.11 80
6 02/01/2025 20:57:49 0.00, 61.65 -0.94, 65.93 486.86 80
7 02/03/2025 09:19:44 -0.00, 61.80 -0.28, 60.63 133.36 80
8 02/04/2025 09:03:40 0.00, 61.82 0.74, 65.16 380.58 80
9 02/05/2025 21:25:28 -0.00, 61.74 0.43, 59.89 212.04 80
10 02/06/2025 21:04:04 -0.01, 61.77 -0.60, 64.42 301.06 80
